Theta_e
321 334 334 333 334 338 343 350 353 352 350 353 354 354 354 354 354 355 355 352 352 352 349 347 346 347 341 343 342 341 341 341
320 320 333 334 334 335 341 346 350 352 349 350 351 350 353 350 350 351 351 348 349 350 348 347 348 344 343 342 339 341 342 341
320 327 335 338 333 335 338 343 346 347 348 346 348 348 349 349 349 352 351 347 347 348 348 346 345 343 341 341 339 340 339 339
316 324 332 337 339 337 339 341 345 346 345 347 347 348 348 348 347 349 350 348 348 345 346 344 343 343 341 339 339 337 337 337
314 317 324 333 339 343 343 343 345 346 342 344 344 343 343 343 344 347 346 347 346 346 342 341 341 342 342 340 340 339 336 336
313 314 318 327 337 342 345 339 341 342 343 342 340 339 341 341 341 341 344 343 342 342 339 338 339 339 337 336 336 335 334 334
315 314 317 320 330 341 346 347 341 341 341 342 341 339 337 339 339 339 341 340 341 340 338 339 340 336 335 335 335 335 334 335
312 313 316 318 323 332 342 349 349 345 343 341 338 339 338 338 338 339 340 340 339 338 338 338 338 334 335 336 337 338 337 336
310 312 315 316 320 322 329 339 348 348 345 341 340 336 341 343 343 344 343 339 338 339 340 338 338 337 338 339 339 338 337 338
308 310 314 317 317 320 322 327 336 343 344 346 345 343 345 345 345 345 345 341 343 344 345 343 342 339 340 340 340 338 338 339
306 309 313 316 317 319 320 322 326 334 341 346 347 346 346 344 346 347 348 346 347 348 347 346 344 342 341 342 341 341 338 337
306 310 312 313 315 317 320 322 323 324 334 338 345 342 340 344 346 348 349 348 348 349 350 347 346 344 345 343 342 341 341 337
307 309 310 311 314 315 319 321 323 326 327 333 335 341 341 345 345 352 354 351 351 350 351 348 347 346 345 345 341 342 341 339
309 309 310 311 312 314 316 319 323 325 325 328 332 338 342 340 342 341 343 346 349 351 350 350 349 347 346 345 344 343 342 341
307 307 308 310 311 314 315 317 320 322 323 325 329 334 338 340 341 339 341 340 342 347 349 348 347 349 349 347 344 344 343 341
306 307 308 308 310 313 315 316 317 319 320 323 329 333 333 336 340 338 339 339 341 348 346 348 348 347 347 346 343 343 345 343
306 307 308 308 310 312 314 315 317 318 318 323 327 330 335 338 345 347 341 345 341 344 345 346 347 347 347 347 344 345 345 345
306 307 307 309 311 312 315 316 316 317 318 322 326 329 333 337 341 341 343 341 341 342 345 347 347 347 349 348 347 347 346 344
304 305 307 309 310 311 314 314 316 316 318 322 326 328 332 333 335 337 339 341 341 341 343 345 346 348 348 348 347 346 344 341
304 305 307 309 309 311 312 314 314 315 319 322 326 329 331 331 332 335 338 339 341 341 343 344 347 347 348 346 345 343 340 338
Wind_Speed
7 10 12 14 15 11 15 14 15 16 13 10 8 7 8 8 11 10 9 7 7 7 6 7 8 11 8 10 10 9 10 6
10 8 9 13 17 15 15 15 14 14 10 10 10 9 9 9 11 13 9 7 8 8 7 8 8 7 10 8 7 8 9 9
7 5 6 12 15 15 16 14 13 12 11 9 9 11 10 11 11 13 11 10 9 9 8 8 8 8 8 8 8 8 9 10
7 3 6 10 14 15 18 15 14 12 12 12 8 8 10 9 9 11 14 10 9 9 9 9 8 8 8 8 8 7 8 8
8 6 6 9 12 12 16 15 17 15 14 13 10 8 8 9 10 12 13 12 9 10 9 8 8 8 9 7 8 8 8 8
9 8 7 7 8 10 12 12 16 15 13 11 9 8 7 9 9 8 13 12 11 10 8 8 7 8 8 7 7 8 8 8
9 8 8 8 7 8 8 12 14 13 11 11 10 9 8 10 9 9 9 10 12 10 9 9 9 8 8 7 7 8 7 7
10 10 9 8 6 7 7 9 12 8 7 7 9 8 7 7 8 9 10 9 10 7 8 8 8 8 8 7 8 7 7 5
10 13 11 8 5 6 4 9 10 9 9 10 10 12 11 9 9 10 10 10 11 8 7 9 8 10 9 10 8 9 6 5
11 12 11 10 8 7 6 5 7 9 8 7 9 8 10 11 10 11 12 13 13 12 12 8 10 8 12 11 10 5 5 6
9 9 11 11 12 11 8 7 6 8 11 9 7 6 4 6 9 10 13 16 16 16 14 10 11 11 10 11 11 10 7 5
7 9 10 9 11 11 11 8 7 5 9 11 15 13 12 11 11 10 10 16 17 16 13 13 13 10 10 10 9 9 9 8
6 8 10 12 11 11 11 12 11 8 5 10 11 13 10 10 9 10 11 10 14 14 15 16 14 10 10 10 10 11 9 8
6 6 9 11 11 11 10 11 12 10 8 6 11 13 12 11 12 10 9 8 9 13 14 13 12 10 10 10 10 12 11 11
7 8 11 12 14 13 10 10 14 13 13 10 9 13 14 14 13 9 10 8 8 10 13 13 11 11 9 9 11 10 12 11
8 11 13 12 13 14 14 12 13 12 14 14 9 12 11 10 11 10 10 9 10 8 12 12 11 10 9 10 9 9 11 10
10 13 13 14 14 15 14 16 15 13 14 13 12 12 14 12 14 11 11 10 8 9 12 11 9 9 11 11 9 10 10 10
13 14 16 15 16 15 15 15 16 15 14 14 13 13 14 14 12 13 12 11 11 10 11 10 10 10 12 12 9 10 10 7
19 20 18 17 17 16 15 14 15 15 15 15 15 14 14 13 13 13 13 10 11 11 12 11 12 12 12 12 11 10 10 9
20 21 21 18 15 15 14 13 14 14 16 16 16 14 13 13 15 14 12 13 12 12 12 13 13 13 13 13 12 10 11 11
Wind_Direction
296 252 220 211 206 197 203 194 190 190 191 187 190 186 183 187 197 191 195 200 211 203 205 200 210 209 224 210 213 221 220 219
305 303 245 200 218 206 206 202 199 196 196 197 192 191 186 191 191 193 188 195 211 209 207 209 213 212 218 219 222 228 228 224
309 290 287 250 212 202 204 204 199 194 200 198 202 203 199 196 190 198 193 194 210 212 214 211 217 215 220 220 227 226 229 233
301 287 260 239 234 216 189 190 207 195 202 212 217 205 202 201 203 207 203 201 211 207 218 223 223 222 221 230 231 232 237 239
326 324 258 261 235 231 205 194 184 197 195 206 219 222 219 217 215 204 213 209 194 223 226 225 228 227 221 225 234 235 240 236
331 341 335 307 265 221 217 198 194 200 202 201 206 207 210 225 231 226 208 201 196 199 226 228 235 242 229 222 225 238 243 238
326 331 343 332 288 256 206 206 215 199 201 199 205 197 202 225 213 221 228 236 222 183 205 223 186 233 232 227 225 233 239 243
313 322 335 337 330 281 238 201 215 214 215 202 209 217 222 219 229 222 200 217 207 216 228 187 196 218 224 222 226 219 243 247
319 321 329 342 353 358 284 225 216 190 200 214 220 218 220 221 224 218 201 195 185 222 226 193 199 217 224 214 206 220 224 222
310 316 317 332 328 342 345 293 241 219 212 215 226 216 218 219 214 211 200 196 193 208 217 197 204 212 219 208 203 203 225 196
284 297 311 319 324 330 328 316 288 251 227 222 216 229 239 202 210 214 209 197 201 205 208 206 200 209 212 204 202 206 221 203
255 281 296 313 316 317 316 315 300 240 237 231 221 223 228 227 225 218 205 204 205 203 203 202 206 205 210 205 199 212 215 214
258 282 301 311 314 313 310 313 304 300 236 225 231 226 230 242 241 236 215 206 210 205 207 202 201 208 207 201 193 206 208 219
275 308 309 304 312 314 312 310 303 308 301 262 234 242 225 228 230 230 223 213 206 205 208 206 203 202 201 201 203 207 206 216
302 325 326 314 316 316 310 298 297 304 295 284 259 244 237 231 238 242 241 220 214 212 206 201 198 198 196 197 201 207 207 212
295 306 315 309 303 306 303 290 279 287 287 280 270 251 244 231 229 227 235 233 228 205 199 202 193 183 187 193 202 209 204 209
298 307 311 305 301 295 291 289 281 276 274 274 267 254 241 235 226 215 221 223 220 193 194 197 183 182 188 190 200 195 196 204
294 297 307 301 294 288 284 273 272 276 273 266 260 252 239 232 231 225 219 206 195 193 190 187 179 186 187 183 185 186 193 196
306 303 302 295 292 284 282 272 267 270 269 261 254 251 243 234 228 228 222 200 190 190 191 183 185 185 176 177 179 178 192 184
301 299 298 296 289 287 285 282 277 272 269 266 254 246 235 222 220 219 207 201 189 190 184 186 183 175 171 177 178 183 180 182